User: anonymous   Login
Location: NJAA Observatory
(40.6819°N, 74.8979°W)
Time: 21:31:21
(UTC-04:00)
Language:

Iridium 4 - Orbit

View from above orbital plane
View from above orbital plane
View from above satellite
View from above satellite

Ground track
Ground track

The orbit data is extracted from the following two-line orbital elements,

1 24796U 97020E   16181.34877721  .00000097  00000-0  27075-4 0  9993
2 24796  86.3974 105.6053 0002254  87.6785  27.3504 14.35087601  2706
Epoch (UTC): 29 June 2016 08:22:14
Eccentricity: 0.0002254
inclination: 86.3974°
perigee height: 773 km
apogee height: 776 km
right ascension of ascending node: 105.6053°
argument of perigee: 87.6785°
revolutions per day: 14.35087601
mean anomaly at epoch: 27.3504°
orbit number at epoch: 270

The dashed part of the orbit path shows where the satellite is in the earth's shadow,  

DLR